KC7MRQ Weather Reports


Display with metric or nautical units.
time (UTC)temp
F
wind
direction
speed
MPH
gust
MPH
rain 1hr
in
rain 24hr
in
rain mn
in
humidity
%
barometer
mb
20260509064556 48 345 2.0 8.0 0.00 0.00 0.00 37 1010.8
20260509063100 48 345 6.0 9.0 0.00 0.00 0.00 36 1010.5
20260509061606 48 345 5.0 9.0 0.00 0.00 0.00 37 1010.5
20260509060050 49 345 5.0 10.0 0.00 0.00 0.00 36 1010.5
20260509054557 49 345 5.0 7.0 0.00 0.00 0.00 38 1010.4
20260509053058 52 217 3.0 5.0 0.00 0.00 0.00 33 1010.5
20260509051550 53 345 4.0 11.0 0.00 0.00 0.00 33 1010.4
20260509050049 52 345 7.0 12.0 0.00 0.00 0.00 35 1010.0
20260509044549 53 345 5.0 10.0 0.00 0.00 0.00 35 1009.9
20260509043043 54 198 6.0 12.0 0.00 0.00 0.00 38 1009.9
20260509041543 55 81 1.0 6.0 0.00 0.00 0.00 37 1009.8
20260509040043 55 286 3.0 10.0 0.00 0.00 0.00 37 1009.7
20260509034542 56 208 7.0 10.0 0.00 0.00 0.00 36 1009.7
20260509033041 56 199 9.0 13.0 0.00 0.00 0.00 36 1009.5
20260509031540 57 213 8.0 11.0 0.00 0.00 0.00 36 1009.3
20260509030041 57 206 5.0 11.0 0.00 0.00 0.00 36 1009.2
20260509024539 57 211 4.0 10.0 0.00 0.00 0.00 37 1009.0
20260509023039 58 216 8.0 14.0 0.00 0.00 0.00 36 1008.9
20260509021538 58 224 11.0 20.0 0.00 0.00 0.00 36 1008.9
20260509020039 59 203 12.0 21.0 0.00 0.00 0.00 37 1008.7
20260509014536 59 232 6.0 22.0 0.00 0.00 0.00 35 1008.5
20260509013036 60 202 9.0 21.0 0.00 0.00 0.00 36 1008.3
20260509011536 61 181 8.0 16.0 0.00 0.00 0.00 35 1008.2
20260509010037 61 218 11.0 18.0 0.00 0.00 0.00 34 1008.2
20260509004538 61 250 7.0 16.0 0.00 0.00 0.00 34 1008.2
20260509003037 62 224 10.0 20.0 0.00 0.00 0.00 34 1008.2
20260509001531 62 217 8.0 17.0 0.00 0.00 0.00 35 1008.3
20260509000031 63 214 9.0 20.0 0.00 0.00 0.00 35 1008.1
20260508234532 63 216 12.0 17.0 0.00 0.00 0.00 34 1008.1
20260508233030 64 235 10.0 16.0 0.00 0.00 0.00 33 1007.9
20260508231529 65 168 5.0 14.0 0.00 0.00 0.00 30 1007.7
20260508230029 65 212 8.0 18.0 0.00 0.00 0.00 32 1007.9
20260508224531 65 229 14.0 21.0 0.00 0.00 0.00 30 1007.8
20260508223037 66 205 8.0 20.0 0.00 0.00 0.00 28 1007.9
20260508221525 66 208 9.0 20.0 0.00 0.00 0.00 28 1008.0
20260508220027 65 260 3.0 19.0 0.00 0.00 0.00 29 1008.0
20260508214523 66 302 12.0 24.0 0.00 0.00 0.00 28 1008.1
20260508213020 65 271 16.0 27.0 0.00 0.00 0.00 26 1008.1
20260508211520 66 269 15.0 24.0 0.00 0.00 0.00 25 1008.3
20260508210020 66 262 12.0 21.0 0.00 0.00 0.00 29 1008.6
20260508204516 66 214 10.0 16.0 0.00 0.00 0.00 29 1008.6
20260508203022 65 296 3.0 16.0 0.00 0.00 0.00 28 1008.7
20260508201515 65 174 5.0 18.0 0.00 0.00 0.00 27 1008.8
20260508200013 65 179 5.0 19.0 0.00 0.00 0.00 25 1008.9
20260508194508 65 217 9.0 17.0 0.00 0.00 0.00 30 1009.1
20260508193007 65 171 7.0 19.0 0.00 0.00 0.00 29 1009.3
20260508191512 64 226 7.0 16.0 0.00 0.00 0.00 32 1009.4
20260508190004 64 187 9.0 14.0 0.00 0.00 0.00 29 1009.6
20260508184600 64 139 3.0 11.0 0.00 0.00 0.00 32 1009.6
20260508183102 62 277 4.0 14.0 0.00 0.00 0.00 34 1009.8
20260508181555 62 214 3.0 12.0 0.00 0.00 0.00 35 1010.0
20260508180100 60 237 4.0 11.0 0.00 0.00 0.00 36 1010.2
20260508174553 60 196 0.0 7.0 0.00 0.00 0.00 38 1010.4
20260508173051 60 175 9.0 14.0 0.00 0.00 0.00 39 1010.7
20260508171551 60 286 10.0 15.0 0.00 0.00 0.00 39 1010.8
20260508170044 59 167 7.0 11.0 0.00 0.00 0.00 41 1011.0
20260508164543 58 200 4.0 11.0 0.00 0.00 0.00 43 1011.2
20260508163041 57 167 6.0 12.0 0.00 0.00 0.00 45 1011.4
20260508161543 59 252 7.0 14.0 0.00 0.00 0.00 44 1011.4
20260508160037 57 110 2.0 7.0 0.00 0.00 0.00 51 1011.6
20260508154533 55 97 1.0 7.0 0.00 0.00 0.00 53 1011.5
20260508153034 55 106 2.0 6.0 0.00 0.00 0.00 55 1011.8
20260508151527 53 196 3.0 7.0 0.00 0.00 0.00 55 1011.9
20260508150025 51 108 3.0 8.0 0.00 0.00 0.00 61 1012.0
20260508144520 50 201 2.0 8.0 0.00 0.00 0.00 61 1012.1
20260508143016 49 211 2.0 8.0 0.00 0.00 0.00 66 1012.0
20260508141513 47 160 3.0 9.0 0.00 0.00 0.00 67 1012.1
20260508140009 45 188 8.0 12.0 0.00 0.00 0.00 69 1012.1
20260508134512 43 345 0.0 3.0 0.00 0.00 0.00 73 1012.1
20260508133007 43 345 9.0 17.0 0.00 0.00 0.00 73 1012.1
20260508131507 42 345 7.0 14.0 0.00 0.00 0.00 74 1012.0
20260508130006 41 345 6.0 12.0 0.00 0.00 0.00 76 1012.0
20260508124505 40 345 10.0 17.0 0.00 0.00 0.00 76 1011.9
20260508123007 40 345 13.0 17.0 0.00 0.00 0.00 77 1011.7
20260508121502 40 345 13.0 17.0 0.00 0.00 0.00 76 1011.5
20260508120100 39 345 13.0 18.0 0.00 0.00 0.00 76 1011.5
20260508120003 39 345 13.0 18.0 0.00 0.00 0.00 76 1011.4
20260508114609 39 345 15.0 19.0 0.00 0.00 0.00 77 1011.5
20260508113106 39 345 15.0 18.0 0.00 0.00 0.00 76 1011.4
20260508111612 40 345 13.0 16.0 0.00 0.00 0.00 75 1011.4
20260508110100 40 345 12.0 16.0 0.00 0.00 0.00 74 1011.5
20260508104559 40 345 14.0 18.0 0.00 0.00 0.00 76 1011.4
20260508103053 39 345 13.0 17.0 0.00 0.00 0.00 75 1011.4
20260508101553 40 345 12.0 15.0 0.00 0.00 0.00 74 1011.3
20260508100046 41 345 10.0 13.0 0.00 0.00 0.00 73 1011.2
20260508094547 40 345 6.0 11.0 0.00 0.00 0.00 74 1011.3
20260508093043 40 345 10.0 13.0 0.00 0.00 0.00 74 1011.1
20260508091551 41 345 9.0 12.0 0.00 0.00 0.00 73 1011.2
20260508090041 41 345 10.0 12.0 0.00 0.00 0.00 72 1011.2
20260508084535 42 298 6.0 12.0 0.00 0.00 0.00 70 1011.2
20260508083034 43 345 6.0 10.0 0.00 0.00 0.00 69 1011.2
20260508081543 43 345 0.0 12.0 0.00 0.00 0.00 69 1011.3
20260508080035 43 345 10.0 13.0 0.00 0.00 0.00 69 1011.2
20260508074527 43 345 13.0 17.0 0.00 0.00 0.00 68 1011.0
20260508073025 44 345 13.0 16.0 0.00 0.00 0.00 67 1011.0
20260508071523 44 345 8.0 11.0 0.00 0.00 0.00 67 1011.0
20260508070020 45 345 8.0 13.0 0.00 0.00 0.00 65 1010.9